Ishigakijima, Japan

7:43 PM JST on May 27, 2017 (GMT +0900)
Ishigaki

Weather History for ROIG - November, 2013

Change the Weather History Date:

Monday, November 11, 2013

  Actual Average Record
Temperature  
Mean Temperature 73 °F -  
Max Temperature 76 °F 75 °F 82 °F (1996)
Min Temperature 68 °F 67 °F 68 °F (1998)
Cooling Degree Days 8    
Growing Degree Days 23 (Base 50)    
Moisture  
Dew Point 70 °F    
Average Humidity 90    
Maximum Humidity 100    
Minimum Humidity 75    
Precipitation  
Precipitation 0.04 in 0.20 in - ()
Sea Level Pressure  
Sea Level Pressure 30.02 in    
Wind  
Wind Speed 15 mph ()    
Max Wind Speed 28 mph    
Max Gust Speed 33 mph    
Visibility 4.4 miles    
Events Rain    
Averages and records for this station are not official NWS values.
T = Trace of Precipitation, MM = Missing Value Source: Averaged Metar Reports

Daily Weather History Graph

Daily Weather History Graph

Search for Another Location

Airport or City:

Trip Planner

Search our weather history database for the weather conditions in past years. The results will help you decide how hot, cold, wet, or windy it might be!

Date:

Astronomy

Nov. 11, 2013 Rise Set
Actual Time 6:55 AM JST 5:58 PM JST
Civil Twilight 6:32 AM JST 6:22 PM JST
Nautical Twilight 6:04 AM JST 6:49 PM JST
Astronomical Twilight 5:37 AM JST 7:16 PM JST
Moon 1:40 PM JST (11/11) 12:44 AM JST (11/11)
Length of Visible Light 11h 50m
Length of Day
11h 02m
First Quarter, 60% of the Moon is Illuminated
Nov 11
First Quarter
Nov 18
Full
Nov 26
Last Quarter
Dec 3
New
Dec 10
First Quarter

Hourly Weather History & Observations

Time (JST) Temp. Dew Point Humidity Pressure Visibility Wind Dir Wind Speed Gust Speed Precip Events Conditions
12:00 AM 78 °F 76 °F 91% 30.03 in - ENE 4.6 mph - -  
3:00 AM 78 °F 76 °F 91% 30.01 in 6 mi East 4.6 mph - -   Partly Cloudy
6:00 AM 77 °F 75 °F 90% 30.01 in 6 mi ENE 5.8 mph - -   Scattered Clouds
6:00 AM 75.2 °F 73.4 °F 94% 30.01 in 6.2 mi ENE 10.4 mph - N/A Rain Light Rain
6:35 AM 75.2 °F 71.6 °F 89% 30.01 in 3.7 mi NE 11.5 mph - N/A Rain Heavy Rain Showers
6:47 AM 73.4 °F 73.4 °F 100% 30.01 in 2.5 mi NE 20.7 mph - N/A Rain Heavy Rain Showers
7:00 AM 73.4 °F 73.4 °F 100% 30.01 in 3.7 mi NE 24.2 mph - N/A Rain Rain Showers
7:13 AM 73.4 °F 73.4 °F 100% 30.01 in 4.3 mi NE 26.5 mph - N/A Rain Light Rain Showers
8:00 AM 73.4 °F 71.6 °F 94% 30.04 in 4.3 mi NE 27.6 mph - N/A   Mostly Cloudy
9:00 AM 73 °F 70 °F 89% 30.06 in 5 mi NE 19.6 mph - - Rain Light Rain Showers
9:00 AM 73.4 °F 69.8 °F 88% 30.04 in 5.0 mi NE 25.3 mph - N/A   Mostly Cloudy
10:00 AM 73.4 °F 68.0 °F 83% 30.06 in 5.0 mi NE 23.0 mph - N/A   Mostly Cloudy
11:00 AM 73.4 °F 68.0 °F 83% 30.04 in 5.0 mi NE 25.3 mph - N/A   Mostly Cloudy
12:00 PM 75 °F 69 °F 75% 30.05 in 5 mi NE 17.3 mph - - Rain Light Rain Showers
12:00 PM 73.4 °F 68.0 °F 83% 30.04 in 6.2 mi ENE 21.9 mph - N/A Rain Light Rain
1:00 PM 73.4 °F 68.0 °F 83% 30.01 in 5.6 mi NE 20.7 mph - N/A Rain Light Rain
2:00 PM 71.6 °F 68.0 °F 88% 29.98 in 5.6 mi NE 23.0 mph - N/A Rain Light Rain
3:00 PM 73 °F 67 °F 76% 30.00 in 5 mi NE 18.4 mph - - Rain Light Rain Showers
3:00 PM 71.6 °F 68.0 °F 88% 29.98 in 5.0 mi NE 21.9 mph - N/A Rain Light Rain
4:00 PM 69.8 °F 68.0 °F 94% 29.98 in 4.3 mi NE 21.9 mph - N/A Rain Light Rain
5:00 PM 69.8 °F 68.0 °F 94% 30.01 in 3.1 mi NE 19.6 mph - N/A Rain Light Rain
6:00 PM 70 °F 68 °F 90% 30.02 in 3 mi NE 13.8 mph - - Rain Light Rain
6:00 PM 69.8 °F 68.0 °F 94% 30.01 in 4.3 mi NE 21.9 mph - N/A Rain Light Rain
6:14 PM 69.8 °F 68.0 °F 94% 30.01 in 2.5 mi NE 23.0 mph - N/A Rain Light Rain
6:28 PM 68.0 °F 66.2 °F 94% 30.01 in 3.7 mi NE 23.0 mph - N/A Rain Light Rain
7:00 PM 68.0 °F 66.2 °F 94% 30.04 in 2.5 mi NE 20.7 mph - N/A Rain Light Rain
8:00 PM 68.0 °F 66.2 °F 94% 30.04 in 3.1 mi NE 21.9 mph 33.4 mph N/A Rain Light Rain
8:27 PM 68.0 °F 66.2 °F 94% 30.04 in 2.5 mi NE 20.7 mph - N/A Rain Light Rain
8:46 PM 68.0 °F 66.2 °F 94% 30.04 in 3.7 mi NNE 21.9 mph - N/A Rain Light Rain
9:00 PM 69 °F 67 °F 90% 30.07 in 5 mi NE 15.0 mph - - Rain Light Rain